Hourly Data Report for April 11, 2005

TORONTO CITY
ONTARIO

43°40'00.000" N
79°24'00.000" W
112.50 m
6158355
71508
XTO

Download Data

Hourly Data (April 2005)
Hourly Data Report for April 11, 2005
TIME
LST
Temp Definition
°C
Dew Point Definition
°C
Rel Hum Definition
%
Precip. Amount Definition
mm

Wind Dir Definition
10's deg

Wind Spd Definition
km/h
Visibility Definition
km
Stn Press Definition
kPa
Hmdx Definition


Wind Chill Definition


Weather Definition


00:00 11.2 -7.9 25   LegendMM LegendMM   100.90     LegendNANA
01:00 9.7 -9.2 25   LegendMM LegendMM   100.97     LegendNANA
02:00 8.3 -9.8 27   LegendMM LegendMM   101.02     LegendNANA
03:00 7.1 -10.4 28   LegendMM LegendMM   101.09     LegendNANA
04:00 5.8 -9.4 33   LegendMM LegendMM   101.16     LegendNANA
05:00 4.5 -9.5 35   LegendMM LegendMM   101.22     LegendNANA
06:00 3.6 -9.4 38   LegendMM LegendMM   101.28     LegendNANA
07:00 3.6 -9.2 39   LegendMM LegendMM   101.33     LegendNANA
08:00 4.8 -9.8 34   LegendMM LegendMM   101.38     LegendNANA
09:00 5.1 -9.1 35   LegendMM LegendMM   101.38     LegendNANA
10:00 5.7 -8.7 35   LegendMM LegendMM   101.38     LegendNANA
11:00 6.5 -8.3 34   LegendMM LegendMM   101.34     LegendNANA
12:00 5.6 -6.8 40   LegendMM LegendMM   101.38     LegendNANA
13:00 7.4 -5.6 39   LegendMM LegendMM   101.31     LegendNANA
14:00 7.4 -5.5 39   LegendMM LegendMM   101.27     LegendNANA
15:00 7.0 -5.6 40   LegendMM LegendMM   101.17     LegendNANA
16:00 6.0 -6.1 41   LegendMM LegendMM   101.09     LegendNANA
17:00 6.3 -6.3 40   LegendMM LegendMM   101.14     LegendNANA
18:00 6.3 -8.6 33   LegendMM LegendMM   101.14     LegendNANA
19:00 6.2 -8.4 34   LegendMM LegendMM   101.22     LegendNANA
20:00 6.3 -9.3 32   LegendMM LegendMM   101.25     LegendNANA
21:00 6.2 -9.0 33   LegendMM LegendMM   101.28     LegendNANA
22:00 5.9 -8.7 34   LegendMM LegendMM   101.22     LegendNANA
23:00 5.5 -8.6 35   LegendMM LegendMM   101.19     LegendNANA

Notes on Data Quality.

Legend

  • E = Estimated
  • M = Missing
  • NA = Not Available*
  • [empty] = Indicates an unobserved value
Date modified: